Home   Weather   Olympia   Past weeks

Flag for USA Past Weather in Olympia, Washington, USA — Yesterday and Last 2 Weeks

51 °F

Mostly cloudy.

Feels Like: 51 °F
Forecast: 48 / 59 °F
Wind: 3 mph from Southwest

Location: Olympia Airport

Current Time: Oct 27, 2016 at 11:41:22 PM

Latest Report: Oct 27, 2016 at 10:54 PM

Visibility: 10 mi

Pressure: 29.89 "Hg

Humidity: 83%

Dew Point: 46 °F

Location of OlympiaLocation

Past Weather in Olympia — Graph


Olympia Temperature Yesterday

Maximum temperature yesterday: 56 °F (at 9:54 PM)
Minimum temperature yesterday: 47 °F (at 12:54 AM)
Average temperature yesterday: 52 °F

High & Low Weather Summary for the Past Weeks

High62 °F (Oct 23, 2:54 PM)100% (Oct 18, 10:01 PM)30.32 "Hg (Oct 18, 10:01 PM)
Low40 °F (Oct 22, 6:54 AM)54% (Oct 25, 2:54 PM)29.08 "Hg (Oct 15, 3:54 PM)
Average52 °F87%29.79 "Hg
* Reported Oct 12 9:54 PM — Oct 27 9:54 PM, Olympia, Weather by CustomWeather, © 2016

Note: Actual official high and low records may vary slightly from our data, if they occured in-between our weather recording intervals... More about our weather records


Olympia Weather History for the Previous 24 Hours

Scroll right to see more
Time TempWeatherWind HumidityBarometerVisibility
9:54 PM
Thu, Oct 27
51 °FPassing clouds.6 mph80%29.88 "Hg10 mi
8:54 PM52 °FLight rain. Mostly cloudy.6 mph80%29.87 "Hg8 mi
7:54 PM52 °FOvercast.3 mph83%29.86 "Hg10 mi
6:54 PM52 °FMostly cloudy.3 mph86%29.85 "Hg10 mi
5:54 PM53 °FMostly cloudy.6 mph83%29.85 "Hg10 mi
4:54 PM54 °FLight rain. Cloudy.12 mph80%29.84 "Hg5 mi
3:54 PM55 °FMostly cloudy.13 mph77%29.83 "Hg10 mi
2:54 PM57 °FMore clouds than sun.15 mph74%29.83 "Hg10 mi
1:54 PM56 °FBroken clouds.17 mph75%29.83 "Hg10 mi
12:54 PM55 °FLight rain. Partly sunny.13 mph80%29.83 "Hg10 mi
11:58 AM55 °FPartly sunny.14 mph80%29.84 "Hg10 mi
10:54 AM54 °FPassing clouds.9 mph83%29.84 "Hg10 mi
9:54 AM53 °FPassing clouds.8 mph86%29.84 "Hg10 mi
8:54 AM51 °FScattered clouds.6 mph89%29.84 "Hg10 mi
7:54 AM50 °FScattered clouds.7 mph89%29.84 "Hg10 mi
6:54 AM52 °FPassing clouds.3 mph86%29.85 "Hg10 mi
5:54 AM52 °FLight rain. Mostly cloudy.5 mph86%29.85 "Hg10 mi
4:54 AM53 °FPartly cloudy.5 mph83%29.85 "Hg10 mi
3:54 AM53 °FPassing clouds.10 mph83%29.85 "Hg10 mi
2:54 AM54 °FOvercast.12 mph86%29.86 "Hg10 mi
1:54 AM54 °FPassing clouds.9 mph86%29.86 "Hg10 mi
12:54 AM54 °FPartly cloudy.6 mph86%29.85 "Hg10 mi
11:54 PM
Wed, Oct 26
53 °FPassing clouds.3 mph89%29.86 "Hg10 mi
Weather by CustomWeather, © 2016

See weather overviewHow to use our weather pages